Location: Pompeys Pillar
(45.9913°N, 107.9528°W)
Time: 16:02:49
(UTC+00:00)

N. Korean satellite - Pass Details

Date: 21 January 2022
Orbit: 437 x 477 km, 97.3° (Epoch: 27 May)

Event Time Altitude Azimuth Distance (km) Brightness Sun altitude
Rises 11:16:51 0° 33° (NNE) 2,607 10.8 -35.9°
Reaches altitude 10° 11:20:07 10° 65° (ENE) 1,721 10.1 -35.3°
Enters shadow 11:21:01 12° 79° (E) 1,610 9.9 -35.2°
